When you browse on this site, cookies collect data to enhance your experience and personalize the content and advertising you see.
Visit our Privacy Policy to learn more. By continuing to use the site, you agree to this use of cookies and data.
  • en France
  • Liste des pays
  • À 7 jours
  • Température de l'eau
  • Carte météo
  • Widgets météo
  • user-avatar
    Se connecter

    Météo par heure à Kaboul

    Ce jour, 31 Mai, Dimanche

    Heure Température Précipitation Vent Pression Humidité
    00:00 +20°C° 0 mm 1 m/s 610 mmHg 43%
    01:00 +19°C° 0 mm 1 m/s 610 mmHg 46%
    02:00 +19°C° 0 mm 1 m/s 609 mmHg 50%
    03:00 +18°C° 0 mm 1 m/s 609 mmHg 52%
    04:00 +18°C° 0 mm 1 m/s 609 mmHg 54%
    05:00 +16°C° 0 mm 1 m/s 609 mmHg 56%
    06:00 +18°C° 0 mm 1 m/s 609 mmHg 49%
    07:00 +20°C° 0 mm 1 m/s 610 mmHg 41%
    08:00 +21°C° 0 mm 1 m/s 611 mmHg 34%
    09:00 +22°C° 0 mm 1 m/s 611 mmHg 30%
    10:00 +23°C° 0 mm 1 m/s 611 mmHg 25%
    11:00 +25°C° 0 mm 1 m/s 611 mmHg 20%
    12:00 +26°C° 0 mm 1 m/s 611 mmHg 19%
    13:00 +27°C° 0 mm 2 m/s 612 mmHg 17%
    14:00 +28°C° 0 mm 2 m/s 612 mmHg 15%
    15:00 +28°C° 0 mm 2 m/s 611 mmHg 15%
    16:00 +28°C° 0 mm 3 m/s 611 mmHg 14%
    17:00 +28°C° 0 mm 4 m/s 611 mmHg 14%
    18:00 +27°C° 0 mm 4 m/s 611 mmHg 18%
    19:00 +25°C° 0 mm 3 m/s 610 mmHg 23%
    20:00 +24°C° 0 mm 3 m/s 610 mmHg 27%
    21:00 +22°C° 0 mm 3 m/s 610 mmHg 32%
    22:00 +21°C° 0 mm 2 m/s 610 mmHg 36%
    23:00 +20°C° 0 mm 2 m/s 611 mmHg 41%

    Demain, 1 Juin, Lundi

    Heure Température Précipitation Vent Pression Humidité
    00:00 +20°C° 0 mm 1 m/s 610 mmHg 45%
    01:00 +19°C° 0 mm 1 m/s 610 mmHg 49%
    02:00 +19°C° 0 mm 1 m/s 609 mmHg 52%
    03:00 +18°C° 0 mm 1 m/s 609 mmHg 52%
    04:00 +18°C° 0 mm 1 m/s 609 mmHg 53%
    05:00 +16°C° 0 mm 1 m/s 609 mmHg 53%
    06:00 +19°C° 0 mm 1 m/s 609 mmHg 44%
    07:00 +20°C° 0 mm 1 m/s 610 mmHg 36%
    08:00 +21°C° 0 mm 1 m/s 611 mmHg 28%
    09:00 +23°C° 0 mm 1 m/s 611 mmHg 24%
    10:00 +24°C° 0 mm 1 m/s 612 mmHg 20%
    11:00 +25°C° 0 mm 2 m/s 612 mmHg 16%
    12:00 +26°C° 0 mm 2 m/s 612 mmHg 14%
    13:00 +27°C° 0 mm 2 m/s 612 mmHg 13%
    14:00 +28°C° 0 mm 2 m/s 612 mmHg 11%
    15:00 +28°C° 0 mm 3 m/s 612 mmHg 11%
    16:00 +28°C° 0 mm 4 m/s 612 mmHg 11%
    17:00 +29°C° 0 mm 5 m/s 612 mmHg 10%
    18:00 +27°C° 0 mm 4 m/s 611 mmHg 13%
    19:00 +26°C° 0 mm 4 m/s 611 mmHg 16%
    20:00 +24°C° 0 mm 3 m/s 611 mmHg 18%
    21:00 +22°C° 0 mm 3 m/s 611 mmHg 21%
    22:00 +21°C° 0 mm 2 m/s 610 mmHg 24%
    23:00 +20°C° 0 mm 2 m/s 610 mmHg 27%

    Après-demain, 2 Juin, Mardi

    Heure Température Précipitation Vent Pression Humidité
    00:00 +20°C° 0 mm 1 m/s 610 mmHg 27%
    01:00 +20°C° 0 mm 1 m/s 609 mmHg 28%
    02:00 +19°C° 0 mm 1 m/s 609 mmHg 29%
    03:00 +18°C° 0 mm 1 m/s 609 mmHg 30%
    04:00 +18°C° 0 mm 1 m/s 609 mmHg 30%
    05:00 +16°C° 0 mm 1 m/s 608 mmHg 30%
    06:00 +19°C° 0 mm 1 m/s 609 mmHg 27%
    07:00 +20°C° 0 mm 1 m/s 610 mmHg 23%
    08:00 +22°C° 0 mm 1 m/s 611 mmHg 19%
    09:00 +23°C° 0 mm 1 m/s 611 mmHg 17%
    10:00 +24°C° 0 mm 1 m/s 611 mmHg 15%
    11:00 +26°C° 0 mm 1 m/s 612 mmHg 14%
    12:00 +26°C° 0 mm 1 m/s 612 mmHg 13%
    13:00 +27°C° 0 mm 1 m/s 612 mmHg 12%
    14:00 +28°C° 0 mm 2 m/s 612 mmHg 11%
    15:00 +29°C° 0 mm 2 m/s 611 mmHg 11%
    16:00 +29°C° 0 mm 3 m/s 611 mmHg 11%
    17:00 +29°C° 0 mm 3 m/s 611 mmHg 11%
    18:00 +28°C° 0 mm 3 m/s 611 mmHg 14%
    19:00 +26°C° 0 mm 3 m/s 610 mmHg 16%
    20:00 +25°C° 0 mm 3 m/s 610 mmHg 19%
    21:00 +24°C° 0 mm 3 m/s 610 mmHg 20%
    22:00 +23°C° 0 mm 2 m/s 610 mmHg 22%
    23:00 +21°C° 0 mm 2 m/s 610 mmHg 24%

    3 Juin, Mercredi

    Heure Température Précipitation Vent Pression Humidité
    00:00 +20°C° 0 mm 2 m/s 609 mmHg 25%
    01:00 +20°C° 0 mm 1 m/s 609 mmHg 27%
    02:00 +19°C° 0 mm 1 m/s 608 mmHg 29%
    03:00 +19°C° 0 mm 1 m/s 608 mmHg 30%
    04:00 +18°C° 0 mm 1 m/s 608 mmHg 30%
    05:00 +18°C° 0 mm 1 m/s 608 mmHg 31%
    06:00 +19°C° 0 mm 1 m/s 608 mmHg 27%
    07:00 +21°C° 0 mm 1 m/s 609 mmHg 23%
    08:00 +23°C° 0 mm 1 m/s 610 mmHg 20%
    09:00 +24°C° 0 mm 1 m/s 610 mmHg 18%
    10:00 +25°C° 0 mm 1 m/s 610 mmHg 17%
    11:00 +26°C° 0 mm 2 m/s 611 mmHg 15%
    12:00 +27°C° 0 mm 2 m/s 611 mmHg 14%
    13:00 +28°C° 0 mm 2 m/s 611 mmHg 13%
    14:00 +29°C° 0 mm 3 m/s 611 mmHg 12%
    15:00 +29°C° 0 mm 4 m/s 610 mmHg 12%
    16:00 +29°C° 0 mm 5 m/s 610 mmHg 12%
    17:00 +29°C° 0 mm 6 m/s 610 mmHg 12%
    18:00 +28°C° 0 mm 6 m/s 610 mmHg 14%
    19:00 +26°C° 0 mm 5 m/s 609 mmHg 16%
    20:00 +25°C° 0 mm 5 m/s 609 mmHg 18%
    21:00 +23°C° 0 mm 4 m/s 609 mmHg 20%
    22:00 +22°C° 0 mm 3 m/s 609 mmHg 22%
    23:00 +21°C° 0 mm 3 m/s 609 mmHg 23%

    4 Juin, Jeudi

    Heure Température Précipitation Vent Pression Humidité
    00:00 +20°C° 0 mm 2 m/s 609 mmHg 25%
    01:00 +20°C° 0 mm 2 m/s 608 mmHg 26%
    02:00 +20°C° 0 mm 1 m/s 608 mmHg 28%
    03:00 +19°C° 0 mm 1 m/s 608 mmHg 29%
    04:00 +19°C° 0 mm 1 m/s 608 mmHg 30%
    05:00 +18°C° 0 mm 1 m/s 607 mmHg 31%
    06:00 +20°C° 0 mm 1 m/s 608 mmHg 28%
    07:00 +22°C° 0 mm 1 m/s 609 mmHg 24%
    08:00 +23°C° 0 mm 1 m/s 610 mmHg 20%
    09:00 +24°C° 0 mm 1 m/s 610 mmHg 19%
    10:00 +26°C° 0 mm 2 m/s 610 mmHg 18%
    11:00 +27°C° 0 mm 2 m/s 611 mmHg 16%
    12:00 +28°C° 0 mm 3 m/s 611 mmHg 15%
    13:00 +29°C° 0 mm 3 m/s 611 mmHg 14%
    14:00 +30°C° 0 mm 3 m/s 611 mmHg 13%
    15:00 +30°C° 0 mm 5 m/s 611 mmHg 13%
    16:00 +30°C° 0 mm 6 m/s 610 mmHg 13%
    17:00 +30°C° 0 mm 7 m/s 610 mmHg 13%
    18:00 +29°C° 0 mm 6 m/s 610 mmHg 15%
    19:00 +27°C° 0 mm 5 m/s 610 mmHg 17%
    20:00 +26°C° 0 mm 5 m/s 610 mmHg 19%
    21:00 +25°C° 0 mm 4 m/s 610 mmHg 21%
    22:00 +24°C° 0 mm 3 m/s 610 mmHg 23%
    23:00 +22°C° 0 mm 3 m/s 610 mmHg 24%

    5 Juin, Vendredi

    Heure Température Précipitation Vent Pression Humidité
    00:00 +21°C° 0 mm 2 m/s 610 mmHg 26%
    01:00 +20°C° 0 mm 2 m/s 609 mmHg 28%
    02:00 +21°C° 0 mm 1 m/s 609 mmHg 30%
    03:00 +20°C° 0 mm 1 m/s 608 mmHg 31%
    04:00 +19°C° 0 mm 1 m/s 608 mmHg 32%
    05:00 +19°C° 0 mm 1 m/s 608 mmHg 33%
    06:00 +21°C° 0 mm 1 m/s 609 mmHg 29%
    07:00 +22°C° 0 mm 1 m/s 610 mmHg 26%
    08:00 +24°C° 0 mm 1 m/s 610 mmHg 22%
    09:00 +26°C° 0 mm 2 m/s 611 mmHg 20%
    10:00 +27°C° 0 mm 2 m/s 611 mmHg 18%
    11:00 +29°C° 0 mm 3 m/s 612 mmHg 15%
    12:00 +30°C° 0 mm 5 m/s 612 mmHg 14%
    13:00 +32°C° 0 mm 7 m/s 612 mmHg 13%
    14:00 +33°C° 0 mm 9 m/s 612 mmHg 11%
    15:00 +32°C° 0 mm 9 m/s 611 mmHg 12%
    16:00 +32°C° 0 mm 9 m/s 611 mmHg 12%
    17:00 +31°C° 0 mm 10 m/s 610 mmHg 13%
    18:00 +29°C° 0 mm 9 m/s 610 mmHg 15%
    19:00 +27°C° 0 mm 8 m/s 610 mmHg 18%
    20:00 +26°C° 0 mm 7 m/s 610 mmHg 20%
    21:00 +25°C° 0 mm 5 m/s 610 mmHg 22%
    22:00 +23°C° 0 mm 4 m/s 610 mmHg 23%
    23:00 +22°C° 0 mm 3 m/s 610 mmHg 25%
    Voir plus